Change the Weather History Date:

Monday, October 8, 2012

  Actual Average Record
Temperature  
Mean Temperature 50 °F -  
Max Temperature 71 °F 73 °F 94 °F (1979)
Min Temperature 30 °F 45 °F 18 °F (2000)
Degree Days  
Heating Degree Days 14    
Moisture  
Dew Point 32 °F    
Average Humidity 51    
Maximum Humidity 85    
Minimum Humidity 11    
Precipitation  
Precipitation 0.00 in - - ()
Sea Level Pressure  
Sea Level Pressure 29.99 in    
Wind  
Wind Speed 13 mph (SSW)    
Max Wind Speed 21 mph    
Max Gust Speed 31 mph    
Visibility 10 miles    
Events      
Averages and records for this station are not official NWS values.
T = Trace of Precipitation, MM = Missing Value Source: NWS Daily Summary

Daily Weather History Graph

Daily Weather History Graph

Search for Another Location

Airport or City:

Trip Planner

Search our weather history database for the weather conditions in past years. The results will help you decide how hot, cold, wet, or windy it might be!

Date:

Astronomy

Oct. 08, 2012 Rise Set
Actual Time 7:42 AM CDT 7:11 PM CDT
Civil Twilight 7:15 AM CDT 7:37 PM CDT
Nautical Twilight 6:45 AM CDT 8:08 PM CDT
Astronomical Twilight 6:15 AM CDT 8:38 PM CDT
Moon 12:30 AM CDT (10/8) 2:55 PM CDT (10/8)
Length of Visible Light 12h 21m
Length of Day
11h 29m
Last Quarter, 46% of the Moon is Illuminated
Oct 8
Last Quarter
Oct 15
New
Oct 21
First Quarter
Oct 29
Full
Nov 6
Last Quarter

Hourly Weather History & Observations

Time (CDT) Temp. Windchill Dew Point Humidity Pressure Visibility Wind Dir Wind Speed Gust Speed Precip Events Conditions
12:52 AM 39.0 °F 31.8 °F 30.9 °F 73% 30.14 in 10.0 mi SSW 11.5 mph - N/A   Clear
1:52 AM 39.0 °F 31.8 °F 30.9 °F 73% 30.13 in 10.0 mi SSW 11.5 mph - N/A   Clear
2:52 AM 37.0 °F 28.5 °F 30.9 °F 79% 30.12 in 10.0 mi SW 13.8 mph - N/A   Clear
3:52 AM 37.0 °F 28.5 °F 30.9 °F 79% 30.09 in 10.0 mi SW 13.8 mph - N/A   Clear
4:52 AM 35.1 °F 26.9 °F 30.0 °F 82% 30.08 in 10.0 mi SSW 11.5 mph - N/A   Clear
5:52 AM 33.1 °F 24.4 °F 28.9 °F 85% 30.08 in 9.0 mi SSW 11.5 mph - N/A   Clear
6:52 AM 32.0 °F 24.2 °F 28.0 °F 85% 30.08 in 7.0 mi SSW 9.2 mph - N/A   Clear
7:52 AM 33.1 °F 24.4 °F 28.9 °F 85% 30.08 in 8.0 mi SSW 11.5 mph - N/A   Clear
8:52 AM 37.0 °F 28.9 °F 30.9 °F 79% 30.07 in 9.0 mi SSW 12.7 mph - N/A   Clear
9:52 AM 46.0 °F 41.0 °F 34.0 °F 63% 30.06 in 10.0 mi SSW 10.4 mph - N/A   Clear
10:52 AM 54.0 °F - 35.1 °F 49% 30.04 in 10.0 mi SW 12.7 mph - N/A   Clear
11:52 AM 62.1 °F - 32.0 °F 32% 30.00 in 10.0 mi SW 11.5 mph - N/A   Clear
12:52 PM 66.0 °F - 30.0 °F 26% 29.97 in 10.0 mi SSW 13.8 mph 23.0 mph N/A   Clear
1:52 PM 69.1 °F - 28.9 °F 22% 29.94 in 10.0 mi South 20.7 mph 26.5 mph N/A   Clear
2:52 PM 70.0 °F - 27.0 °F 20% 29.90 in 10.0 mi SSW 16.1 mph 31.1 mph N/A   Clear
3:52 PM 71.1 °F - 28.0 °F 20% 29.88 in 10.0 mi SSW 18.4 mph 26.5 mph N/A   Clear
4:52 PM 70.0 °F - 32.0 °F 25% 29.86 in 10.0 mi SSW 17.3 mph 26.5 mph N/A   Clear
5:52 PM 66.9 °F - 33.1 °F 28% 29.87 in 10.0 mi SSW 15.0 mph 24.2 mph N/A   Clear
6:52 PM 64.4 °F - 35.6 °F 34% 29.88 in 10.0 mi South 11.5 mph - N/A   Clear
7:52 PM 59.0 °F - 35.1 °F 41% 29.88 in 10.0 mi South 13.8 mph - N/A   Clear
8:52 PM 55.0 °F - 35.1 °F 47% 29.89 in 10.0 mi South 12.7 mph - N/A   Clear
9:52 PM 53.1 °F - 34.0 °F 48% 29.89 in 10.0 mi South 12.7 mph - N/A   Clear
10:52 PM 51.1 °F - 35.1 °F 54% 29.89 in 10.0 mi South 12.7 mph - N/A   Clear
11:52 PM 48.9 °F - 35.1 °F 59% 29.87 in 10.0 mi South 15.0 mph - N/A   Clear